Time,TemperatureF,DewpointF,PressureIn,WindDirection,WindDirectionDegrees,WindSpeedMPH,WindSpeedGustMPH,Humidity,HourlyPrecipIn,Conditions,Clouds,dailyrainin,SoftwareType,DateUTC
2013-10-08 00:04:00,54.0,49.0,29.90,West,260,14.0,20.0,84,0.00,,,0.64,weatherlink.com 1.10,2013-10-08 04:04:00,
2013-10-08 00:19:00,53.7,49.0,29.90,WSW,249,13.0,22.0,84,0.00,,,0.64,weatherlink.com 1.10,2013-10-08 04:19:00,
2013-10-08 00:34:00,53.2,49.0,29.91,WSW,250,13.0,22.0,85,0.00,,,0.64,weatherlink.com 1.10,2013-10-08 04:34:00,
2013-10-08 00:49:00,53.1,48.0,29.90,SW,236,12.0,25.0,84,0.00,,,0.64,weatherlink.com 1.10,2013-10-08 04:49:00,
2013-10-08 01:05:00,52.9,48.0,29.91,SSW,194,12.0,26.0,82,0.00,,,0.64,weatherlink.com 1.10,2013-10-08 05:05:00,
2013-10-08 01:19:00,52.8,47.0,29.91,WSW,257,12.0,26.0,81,0.00,,,0.64,weatherlink.com 1.10,2013-10-08 05:19:00,
2013-10-08 01:34:00,52.6,47.0,29.92,WSW,244,9.0,26.0,81,0.00,,,0.64,weatherlink.com 1.10,2013-10-08 05:34:00,
2013-10-08 01:49:00,52.2,47.0,29.93,WSW,248,13.0,23.0,81,0.00,,,0.64,weatherlink.com 1.10,2013-10-08 05:49:00,
2013-10-08 02:04:00,51.9,46.0,29.93,WSW,246,16.0,21.0,81,0.00,,,0.64,weatherlink.com 1.10,2013-10-08 06:04:00,
2013-10-08 02:19:00,51.4,46.0,29.93,WSW,239,8.0,15.0,82,0.00,,,0.64,weatherlink.com 1.10,2013-10-08 06:19:00,
2013-10-08 02:34:00,51.1,46.0,29.93,SW,230,15.0,15.0,83,0.00,,,0.64,weatherlink.com 1.10,2013-10-08 06:34:00,
2013-10-08 02:49:00,51.3,46.0,29.94,WSW,254,6.0,16.0,82,0.00,,,0.00,weatherlink.com 1.10,2013-10-08 06:49:00,
2013-10-08 03:04:00,50.9,46.0,29.94,SW,229,7.0,15.0,82,0.00,,,0.00,weatherlink.com 1.10,2013-10-08 07:04:00,
2013-10-08 03:19:00,50.9,46.0,29.95,WSW,243,12.0,18.0,82,0.00,,,0.00,weatherlink.com 1.10,2013-10-08 07:19:00,
2013-10-08 03:35:00,50.8,46.0,29.96,NW,311,5.0,18.0,83,0.00,,,0.00,weatherlink.com 1.10,2013-10-08 07:35:00,
2013-10-08 03:50:00,50.8,46.0,29.97,WSW,253,10.0,21.0,83,0.00,,,0.00,weatherlink.com 1.10,2013-10-08 07:50:00,
2013-10-08 04:05:00,50.9,46.0,29.98,WSW,241,7.0,17.0,82,0.00,,,0.00,weatherlink.com 1.10,2013-10-08 08:05:00,
2013-10-08 04:20:00,50.8,46.0,29.99,SW,231,11.0,20.0,83,0.00,,,0.00,weatherlink.com 1.10,2013-10-08 08:20:00,
2013-10-08 04:35:00,50.9,46.0,30.00,SW,228,17.0,23.0,82,0.00,,,0.00,weatherlink.com 1.10,2013-10-08 08:35:00,
2013-10-08 04:50:00,50.2,46.0,30.00,SW,224,8.0,19.0,85,0.00,,,0.00,weatherlink.com 1.10,2013-10-08 08:50:00,
2013-10-08 05:05:00,50.0,46.0,30.01,SE,140,7.0,21.0,85,0.00,,,0.00,weatherlink.com 1.10,2013-10-08 09:05:00,
2013-10-08 05:20:00,49.7,46.0,30.02,SW,233,9.0,20.0,86,0.00,,,0.00,weatherlink.com 1.10,2013-10-08 09:20:00,
2013-10-08 05:35:00,49.2,46.0,30.03,SSW,212,6.0,16.0,87,0.00,,,0.00,weatherlink.com 1.10,2013-10-08 09:35:00,
2013-10-08 05:50:00,49.1,45.0,30.04,WSW,242,11.0,17.0,87,0.00,,,0.00,weatherlink.com 1.10,2013-10-08 09:50:00,
2013-10-08 06:05:00,49.1,45.0,30.05,WSW,242,14.0,19.0,87,0.00,,,0.00,weatherlink.com 1.10,2013-10-08 10:05:00,
2013-10-08 06:20:00,49.2,45.0,30.05,SSW,206,9.0,22.0,86,0.00,,,0.00,weatherlink.com 1.10,2013-10-08 10:20:00,
2013-10-08 06:35:00,49.1,45.0,30.07,West,265,6.0,19.0,86,0.00,,,0.00,weatherlink.com 1.10,2013-10-08 10:35:00,
2013-10-08 06:50:00,48.3,44.0,30.07,WSW,242,6.0,17.0,86,0.00,,,0.00,weatherlink.com 1.10,2013-10-08 10:50:00,
2013-10-08 07:05:00,47.9,43.0,30.08,WSW,250,5.0,17.0,84,0.00,,,0.00,weatherlink.com 1.10,2013-10-08 11:05:00,
2013-10-08 07:20:00,47.6,43.0,30.09,West,268,11.0,16.0,83,0.00,,,0.00,weatherlink.com 1.10,2013-10-08 11:20:00,
2013-10-08 07:35:00,47.3,43.0,30.11,WSW,257,8.0,14.0,84,0.00,,,0.00,weatherlink.com 1.10,2013-10-08 11:35:00,
2013-10-08 07:50:00,47.4,42.0,30.12,WSW,240,11.0,21.0,81,0.00,,,0.00,weatherlink.com 1.10,2013-10-08 11:50:00,
2013-10-08 08:05:00,47.6,41.0,30.12,WSW,239,13.0,17.0,79,0.00,,,0.00,weatherlink.com 1.10,2013-10-08 12:05:00,
2013-10-08 08:21:00,48.0,41.0,30.13,WSW,238,11.0,20.0,77,0.00,,,0.00,weatherlink.com 1.10,2013-10-08 12:21:00,
2013-10-08 08:36:00,48.3,41.0,30.14,WNW,300,0.0,21.0,76,0.00,,,0.00,weatherlink.com 1.10,2013-10-08 12:36:00,
2013-10-08 08:51:00,48.6,42.0,30.15,WSW,246,5.0,17.0,77,0.00,,,0.00,weatherlink.com 1.10,2013-10-08 12:51:00,
2013-10-08 09:06:00,48.8,42.0,30.16,West,273,9.0,19.0,77,0.00,,,0.00,weatherlink.com 1.10,2013-10-08 13:06:00,
2013-10-08 09:21:00,49.4,42.0,30.17,West,269,4.0,19.0,75,0.00,,,0.00,weatherlink.com 1.10,2013-10-08 13:21:00,
2013-10-08 09:36:00,49.7,42.0,30.18,WNW,285,7.0,16.0,74,0.00,,,0.00,weatherlink.com 1.10,2013-10-08 13:36:00,
2013-10-08 09:51:00,49.6,42.0,30.19,NW,312,6.0,17.0,75,0.00,,,0.00,weatherlink.com 1.10,2013-10-08 13:51:00,
2013-10-08 10:06:00,50.3,42.0,30.21,WSW,245,7.0,14.0,74,0.00,,,0.00,weatherlink.com 1.10,2013-10-08 14:06:00,
2013-10-08 10:21:00,50.4,41.0,30.20,WNW,282,14.0,19.0,69,0.00,,,0.00,weatherlink.com 1.10,2013-10-08 14:21:00,
2013-10-08 10:36:00,50.5,40.0,30.21,WNW,286,9.0,18.0,68,0.00,,,0.00,weatherlink.com 1.10,2013-10-08 14:36:00,
2013-10-08 10:51:00,50.6,41.0,30.20,NW,320,10.0,21.0,69,0.00,,,0.00,weatherlink.com 1.10,2013-10-08 14:51:00,
2013-10-08 11:06:00,50.9,40.0,30.21,WSW,242,9.0,21.0,67,0.00,,,0.00,weatherlink.com 1.10,2013-10-08 15:06:00,
2013-10-08 11:21:00,51.1,40.0,30.22,West,265,11.0,18.0,67,0.00,,,0.00,weatherlink.com 1.10,2013-10-08 15:21:00,
2013-10-08 11:36:00,51.7,41.0,30.23,WNW,293,8.0,16.0,66,0.00,,,0.00,weatherlink.com 1.10,2013-10-08 15:36:00,
2013-10-08 11:51:00,51.5,39.0,30.24,WSW,243,6.0,22.0,62,0.00,,,0.00,weatherlink.com 1.10,2013-10-08 15:51:00,
2013-10-08 12:06:00,52.2,40.0,30.23,WSW,241,7.0,16.0,64,0.00,,,0.00,weatherlink.com 1.10,2013-10-08 16:06:00,
2013-10-08 12:21:00,52.6,40.0,30.24,WSW,245,8.0,16.0,63,0.00,,,0.00,weatherlink.com 1.10,2013-10-08 16:21:00,
2013-10-08 12:36:00,52.8,40.0,30.23,WSW,254,10.0,19.0,62,0.00,,,0.00,weatherlink.com 1.10,2013-10-08 16:36:00,
2013-10-08 12:51:00,53.6,40.0,30.23,WNW,302,4.0,13.0,60,0.00,,,0.00,weatherlink.com 1.10,2013-10-08 16:51:00,
2013-10-08 13:06:00,53.8,39.0,30.24,WSW,241,8.0,18.0,58,0.00,,,0.00,weatherlink.com 1.10,2013-10-08 17:06:00,
2013-10-08 13:21:00,54.2,39.0,30.24,NW,317,11.0,19.0,58,0.00,,,0.00,weatherlink.com 1.10,2013-10-08 17:21:00,
2013-10-08 13:36:00,54.6,41.0,30.24,WSW,240,5.0,20.0,60,0.00,,,0.00,weatherlink.com 1.10,2013-10-08 17:36:00,
2013-10-08 13:51:00,55.0,39.0,30.25,NNW,328,3.0,16.0,56,0.00,,,0.00,weatherlink.com 1.10,2013-10-08 17:51:00,
2013-10-08 14:06:00,55.5,40.0,30.25,NW,318,6.0,16.0,57,0.00,,,0.00,weatherlink.com 1.10,2013-10-08 18:06:00,
2013-10-08 14:21:00,56.1,40.0,30.25,SW,219,1.0,12.0,55,0.00,,,0.00,weatherlink.com 1.10,2013-10-08 18:21:00,
2013-10-08 14:36:00,56.1,40.0,30.25,West,268,4.0,14.0,56,0.00,,,0.00,weatherlink.com 1.10,2013-10-08 18:36:00,
2013-10-08 14:51:00,56.6,41.0,30.26,WNW,299,8.0,16.0,56,0.00,,,0.00,weatherlink.com 1.10,2013-10-08 18:51:00,
2013-10-08 15:06:00,57.2,41.0,30.26,SW,223,4.0,11.0,55,0.00,,,0.00,weatherlink.com 1.10,2013-10-08 19:06:00,
2013-10-08 15:21:00,56.6,39.0,30.26,WNW,302,4.0,20.0,52,0.00,,,0.00,weatherlink.com 1.10,2013-10-08 19:21:00,
2013-10-08 15:36:00,56.6,38.0,30.27,West,273,10.0,16.0,51,0.00,,,0.00,weatherlink.com 1.10,2013-10-08 19:36:00,
2013-10-08 15:51:00,56.5,38.0,30.27,WSW,239,8.0,21.0,50,0.00,,,0.00,weatherlink.com 1.10,2013-10-08 19:51:00,
2013-10-08 16:07:00,56.7,39.0,30.27,WSW,257,9.0,15.0,52,0.00,,,0.00,weatherlink.com 1.10,2013-10-08 20:07:00,
2013-10-08 16:22:00,56.5,39.0,30.27,WNW,301,6.0,16.0,52,0.00,,,0.00,weatherlink.com 1.10,2013-10-08 20:22:00,
2013-10-08 16:37:00,56.4,39.0,30.27,WSW,243,11.0,18.0,53,0.00,,,0.00,weatherlink.com 1.10,2013-10-08 20:37:00,
2013-10-08 16:52:00,56.3,41.0,30.28,WSW,239,4.0,13.0,56,0.00,,,0.00,weatherlink.com 1.10,2013-10-08 20:52:00,
2013-10-08 17:07:00,55.8,39.0,30.29,WNW,300,5.0,16.0,53,0.00,,,0.00,weatherlink.com 1.10,2013-10-08 21:07:00,
2013-10-08 17:22:00,55.3,39.0,30.30,West,271,4.0,14.0,55,0.00,,,0.00,weatherlink.com 1.10,2013-10-08 21:22:00,
2013-10-08 17:37:00,54.6,39.0,30.30,NW,304,7.0,16.0,56,0.00,,,0.00,weatherlink.com 1.10,2013-10-08 21:37:00,
2013-10-08 17:52:00,53.8,39.0,30.31,WSW,243,7.0,14.0,58,0.00,,,0.00,weatherlink.com 1.10,2013-10-08 21:52:00,
2013-10-08 18:07:00,53.0,38.0,30.32,NW,323,11.0,14.0,58,0.00,,,0.00,weatherlink.com 1.10,2013-10-08 22:07:00,
2013-10-08 18:22:00,51.9,38.0,30.32,WSW,242,4.0,12.0,60,0.00,,,0.00,weatherlink.com 1.10,2013-10-08 22:22:00,
2013-10-08 18:37:00,51.0,38.0,30.33,WNW,298,2.0,9.0,62,0.00,,,0.00,weatherlink.com 1.10,2013-10-08 22:37:00,
2013-10-08 18:52:00,50.9,38.0,30.33,West,273,3.0,7.0,62,0.00,,,0.00,weatherlink.com 1.10,2013-10-08 22:52:00,
2013-10-08 19:07:00,50.4,38.0,30.33,NW,315,5.0,12.0,63,0.00,,,0.00,weatherlink.com 1.10,2013-10-08 23:07:00,
2013-10-08 19:22:00,50.2,38.0,30.33,WSW,256,3.0,8.0,64,0.00,,,0.00,weatherlink.com 1.10,2013-10-08 23:22:00,
2013-10-08 19:37:00,49.9,38.0,30.34,WSW,255,0.0,1.0,64,0.00,,,0.00,weatherlink.com 1.10,2013-10-08 23:37:00,
2013-10-08 19:52:00,50.3,36.0,30.34,NW,308,5.0,11.0,59,0.00,,,0.00,weatherlink.com 1.10,2013-10-08 23:52:00,
2013-10-08 20:07:00,50.5,36.0,30.34,WNW,303,2.0,14.0,59,0.00,,,0.00,weatherlink.com 1.10,2013-10-09 00:07:00,
2013-10-08 20:22:00,50.5,36.0,30.36,West,275,3.0,12.0,58,0.00,,,0.00,weatherlink.com 1.10,2013-10-09 00:22:00,
2013-10-08 20:37:00,50.3,36.0,30.35,WSW,252,3.0,7.0,58,0.00,,,0.00,weatherlink.com 1.10,2013-10-09 00:37:00,
2013-10-08 20:52:00,50.1,35.0,30.36,SW,235,0.0,7.0,57,0.00,,,0.00,weatherlink.com 1.10,2013-10-09 00:52:00,
2013-10-08 21:07:00,49.7,35.0,30.36,West,272,0.0,2.0,57,0.00,,,0.00,weatherlink.com 1.10,2013-10-09 01:07:00,
2013-10-08 21:22:00,49.0,35.0,30.38,West,272,0.0,1.0,59,0.00,,,0.00,weatherlink.com 1.10,2013-10-09 01:22:00,
2013-10-08 21:37:00,48.7,35.0,30.39,South,189,0.0,3.0,60,0.00,,,0.00,weatherlink.com 1.10,2013-10-09 01:37:00,
2013-10-08 21:52:00,47.8,36.0,30.39,South,189,0.0,0.0,64,0.00,,,0.00,weatherlink.com 1.10,2013-10-09 01:52:00,
2013-10-08 22:07:00,46.9,36.0,30.39,South,189,0.0,1.0,65,0.00,,,0.00,weatherlink.com 1.10,2013-10-09 02:07:00,
2013-10-08 22:22:00,46.1,34.0,30.39,South,189,0.0,0.0,63,0.00,,,0.00,weatherlink.com 1.10,2013-10-09 02:22:00,
2013-10-08 22:37:00,46.2,34.0,30.40,South,189,0.0,0.0,63,0.00,,,0.00,weatherlink.com 1.10,2013-10-09 02:37:00,
2013-10-08 22:52:00,46.2,34.0,30.40,South,189,0.0,0.0,63,0.00,,,0.00,weatherlink.com 1.10,2013-10-09 02:52:00,
2013-10-08 23:07:00,46.6,34.0,30.40,South,189,0.0,0.0,62,0.00,,,0.00,weatherlink.com 1.10,2013-10-09 03:07:00,
2013-10-08 23:22:00,46.8,34.0,30.41,South,189,0.0,0.0,62,0.00,,,0.00,weatherlink.com 1.10,2013-10-09 03:22:00,
2013-10-08 23:37:00,45.7,34.0,30.41,South,189,0.0,1.0,64,0.00,,,0.00,weatherlink.com 1.10,2013-10-09 03:37:00,
2013-10-08 23:52:00,44.8,35.0,30.41,South,189,0.0,0.0,68,0.00,,,0.00,weatherlink.com 1.10,2013-10-09 03:52:00,